Volver al catálogo

STARLINK-11540

ActivoComunicacionesVLEO
NORAD 62564·PAYLOAD·🇺🇸 United States

Lanzado Jan 10, 2025 desde Cape Canaveral Space Force Station

Loading…

Próximos Pases (próximas 24 horas)

TLE

ActualizadoSource: CelesTrak SupGP

Época: Sep 15, 2026, 03:31 UTC

1 62564C 25006L   26258.14701389 -.00041793  00000+0 -32434-3 0  2584
2 62564  43.0006  78.0637 0001712 271.4043 222.5862 15.70878120    18

Sigue STARLINK-11540 en tiempo real con AllMySat

Download on the App Store